Orbital Elements at Epoch 2459000.5 (2020-May-31.0) TDB
Reference: JPL 18 (heliocentric ecliptic J2000)
Element | Value | Uncertainty (1-sigma) | Units |
e | .1132909593492937 | 5.2777e-08 | |
a | 3.096051888024442 | 2.7837e-08 | au |
q | 2.745297199434961 | 1.6705e-07 | au |
i | 1.621063804426344 | 4.2483e-06 | deg |
node | 111.5763724407321 | 0.00023261 | deg |
peri | 138.4125862965773 | 0.00023394 | deg |
M | 16.5272495641148 | 2.6588e-05 | deg |
tp | 2458909.149935769366 (2020-Feb-29.64993577) | 0.00014659 | TDB |
period | 1989.806168016772 5.45 | 2.6836e-05 7.347e-08 | d yr |
n | .1809221449739548 | 2.44e-09 | deg/d |
Q | 3.446806576613922 | 3.0991e-08 | au |
|
| | Orbit Determination Parameters
Additional Information
|